Sainte Marie — WDC2815 — position and weather

sailwx.info

Track history (hours):
 
Tides and Currents Weather Stations Pressure Air Temp Water Temp Dewpoint Dewpoint Depression Visibility Wind Speed Wind Dir Waves Ship Positions

Sainte Marie

Owner: Marquette Transportation Company Gulf-Inland, LLC, Jefferson, LA. More information available from US FCC via Universal Licensing System and Coast Guard Vessel Documentation Center.

Last reported at 2018-Jan-22 19:00 UTC. Time now 2018-Jan-23 00:07 UTC.
Position N 29°29' W 094°52'.

Length 113 m; draft 3 m.

Type: . MMSI: 366998050.

Date/timePositionNaut miles runAvg speedWind from/ knotsBaromVisibWave heightAir tempDewpointWater temp
2018-Jan-22 19:00N 29°29' W 094°52'4 8.2
2018-Jan-22 18:30N 29°32' W 094°54'4 7.6
2018-Jan-22 17:58N 29°35' W 094°56'3 7.4
2018-Jan-22 17:30N 29°39' W 094°58'9 2.7
2018-Jan-22 14:01N 29°46' W 095°05'1 0.0
2018-Jan-20 22:05N 29°45' W 095°04'0 5.1
2018-Jan-20 22:00N 29°44' W 095°04'3 3.5
2018-Jan-20 21:17N 29°43' W 095°01'0 0.2
2018-Jan-20 20:58N 29°43' W 095°01'0 0.1
2018-Jan-20 20:29N 29°43' W 095°01'0 0.1
2018-Jan-20 20:00N 29°43' W 095°01'1 1.1
2018-Jan-20 19:28N 29°42' W 095°01'3 6.3
2018-Jan-20 19:00N 29°40' W 094°59'5 7.5
2018-Jan-20 18:23N 29°36' W 094°57'53 1.9
2018-Jan-19 15:11N 29°49' W 093°58'0 1.3
2018-Jan-19 14:51N 29°49' W 093°58'2 4.9
2018-Jan-19 14:22N 29°51' W 093°56'2 5.8
2018-Jan-19 13:59N 29°53' W 093°55'3 5.7
2018-Jan-19 13:30N 29°55' W 093°53'2 4.7
2018-Jan-19 13:00N 29°57' W 093°52'2 3.0
2018-Jan-19 12:19N 29°59' W 093°50'1 3.5
2018-Jan-19 11:59N 29°59' W 093°48'2 3.8
2018-Jan-19 11:30N 29°60' W 093°46'2 4.5
2018-Jan-19 11:01N 30°01' W 093°45'2 4.5
2018-Jan-19 10:31N 30°03' W 093°43'2 4.5
2018-Jan-19 09:59N 30°04' W 093°40'2 4.4
2018-Jan-19 09:30N 30°04' W 093°38'2 4.4
2018-Jan-19 09:00N 30°04' W 093°36'2 4.2
2018-Jan-19 08:30N 30°04' W 093°33'2 4.3
2018-Jan-19 08:01N 30°04' W 093°31'2 4.4
2018-Jan-19 07:30N 30°04' W 093°28'2 4.1
2018-Jan-19 07:01N 30°04' W 093°26'2 4.3
2018-Jan-19 06:30N 30°04' W 093°23'2 3.6
2018-Jan-19 06:01N 30°04' W 093°21'2 3.8
2018-Jan-19 05:31N 30°05' W 093°20'2 3.1
2018-Jan-19 05:01N 30°06' W 093°18'1 1.8
2018-Jan-19 04:30N 30°05' W 093°17'1 2.2
2018-Jan-19 04:00N 30°04' W 093°16'0 0.7
2018-Jan-19 03:30N 30°04' W 093°16'0 0.1
2018-Jan-19 03:01N 30°04' W 093°16'0 0.0
2018-Jan-19 02:30N 30°04' W 093°16'0 0.0
2018-Jan-19 02:01N 30°04' W 093°16'0 0.0
2018-Jan-19 01:30N 30°04' W 093°16'0 0.0
2018-Jan-19 01:01N 30°04' W 093°16'0 0.0
2018-Jan-19 00:31N 30°04' W 093°16'0 0.1
2018-Jan-19 00:01N 30°04' W 093°16'0 0.2
2018-Jan-18 23:30N 30°04' W 093°16'1 1.2
2018-Jan-18 23:01N 30°03' W 093°16'2 3.9
2018-Jan-18 22:31N 30°02' W 093°15'2 3.4
2018-Jan-18 22:01N 30°00' W 093°14'2 4.4
2018-Jan-18 21:30N 29°59' W 093°12'2 4.2
2018-Jan-18 21:01N 29°57' W 093°10'2 3.9
2018-Jan-18 20:30N 29°56' W 093°08'40 4.2
2018-Jan-18 10:57N 29°52' W 092°23'2 3.4
2018-Jan-18 10:30N 29°51' W 092°22'2 3.4
2018-Jan-18 10:00N 29°51' W 092°20'2 3.4
2018-Jan-18 09:30N 29°50' W 092°18'2 3.4
2018-Jan-18 09:01N 29°49' W 092°17'2 4.0
2018-Jan-18 08:31N 29°48' W 092°14'2 3.8
2018-Jan-18 08:01N 29°47' W 092°12'1 1.8
2018-Jan-18 07:29N 29°47' W 092°11'2 3.9
2018-Jan-18 07:00N 29°47' W 092°09'2 4.1
2018-Jan-18 06:31N 29°47' W 092°07'2 4.1
2018-Jan-18 06:01N 29°48' W 092°05'2 4.1
2018-Jan-18 05:31N 29°49' W 092°03'2 4.0
2018-Jan-18 05:00N 29°50' W 092°00'  
Track history (hours):
 
Tides and Currents Weather Stations Pressure Air Temp Water Temp Dewpoint Dewpoint Depression Visibility Wind Speed Wind Dir Waves Ship Positions

Sainte Marie

Owner: Marquette Transportation Company Gulf-Inland, LLC, Jefferson, LA. More information available from US FCC via Universal Licensing System and Coast Guard Vessel Documentation Center.

Last reported at 2018-Jan-22 19:00 UTC. Time now 2018-Jan-23 00:07 UTC.
Position N 29°29' W 094°52'.

Length 113 m; draft 3 m.

Type: . MMSI: 366998050.

Date/timePositionNaut miles runAvg speedWind from/ knotsBaromVisibWave heightAir tempDewpointWater temp
2018-Jan-22 19:00N 29°29' W 094°52'4 8.2
2018-Jan-22 18:30N 29°32' W 094°54'4 7.6
2018-Jan-22 17:58N 29°35' W 094°56'3 7.4
2018-Jan-22 17:30N 29°39' W 094°58'9 2.7
2018-Jan-22 14:01N 29°46' W 095°05'1 0.0
2018-Jan-20 22:05N 29°45' W 095°04'0 5.1
2018-Jan-20 22:00N 29°44' W 095°04'3 3.5
2018-Jan-20 21:17N 29°43' W 095°01'0 0.2
2018-Jan-20 20:58N 29°43' W 095°01'0 0.1
2018-Jan-20 20:29N 29°43' W 095°01'0 0.1
2018-Jan-20 20:00N 29°43' W 095°01'1 1.1
2018-Jan-20 19:28N 29°42' W 095°01'3 6.3
2018-Jan-20 19:00N 29°40' W 094°59'5 7.5
2018-Jan-20 18:23N 29°36' W 094°57'53 1.9
2018-Jan-19 15:11N 29°49' W 093°58'0 1.3
2018-Jan-19 14:51N 29°49' W 093°58'2 4.9
2018-Jan-19 14:22N 29°51' W 093°56'2 5.8
2018-Jan-19 13:59N 29°53' W 093°55'3 5.7
2018-Jan-19 13:30N 29°55' W 093°53'2 4.7
2018-Jan-19 13:00N 29°57' W 093°52'2 3.0
2018-Jan-19 12:19N 29°59' W 093°50'1 3.5
2018-Jan-19 11:59N 29°59' W 093°48'2 3.8
2018-Jan-19 11:30N 29°60' W 093°46'2 4.5
2018-Jan-19 11:01N 30°01' W 093°45'2 4.5
2018-Jan-19 10:31N 30°03' W 093°43'2 4.5
2018-Jan-19 09:59N 30°04' W 093°40'2 4.4
2018-Jan-19 09:30N 30°04' W 093°38'2 4.4
2018-Jan-19 09:00N 30°04' W 093°36'2 4.2
2018-Jan-19 08:30N 30°04' W 093°33'2 4.3
2018-Jan-19 08:01N 30°04' W 093°31'2 4.4
2018-Jan-19 07:30N 30°04' W 093°28'2 4.1
2018-Jan-19 07:01N 30°04' W 093°26'2 4.3
2018-Jan-19 06:30N 30°04' W 093°23'2 3.6
2018-Jan-19 06:01N 30°04' W 093°21'2 3.8
2018-Jan-19 05:31N 30°05' W 093°20'2 3.1
2018-Jan-19 05:01N 30°06' W 093°18'1 1.8
2018-Jan-19 04:30N 30°05' W 093°17'1 2.2
2018-Jan-19 04:00N 30°04' W 093°16'0 0.7
2018-Jan-19 03:30N 30°04' W 093°16'0 0.1
2018-Jan-19 03:01N 30°04' W 093°16'0 0.0
2018-Jan-19 02:30N 30°04' W 093°16'0 0.0
2018-Jan-19 02:01N 30°04' W 093°16'0 0.0
2018-Jan-19 01:30N 30°04' W 093°16'0 0.0
2018-Jan-19 01:01N 30°04' W 093°16'0 0.0
2018-Jan-19 00:31N 30°04' W 093°16'0 0.1
2018-Jan-19 00:01N 30°04' W 093°16'0 0.2
2018-Jan-18 23:30N 30°04' W 093°16'1 1.2
2018-Jan-18 23:01N 30°03' W 093°16'2 3.9
2018-Jan-18 22:31N 30°02' W 093°15'2 3.4
2018-Jan-18 22:01N 30°00' W 093°14'2 4.4
2018-Jan-18 21:30N 29°59' W 093°12'2 4.2
2018-Jan-18 21:01N 29°57' W 093°10'2 3.9
2018-Jan-18 20:30N 29°56' W 093°08'40 4.2
2018-Jan-18 10:57N 29°52' W 092°23'2 3.4
2018-Jan-18 10:30N 29°51' W 092°22'2 3.4
2018-Jan-18 10:00N 29°51' W 092°20'2 3.4
2018-Jan-18 09:30N 29°50' W 092°18'2 3.4
2018-Jan-18 09:01N 29°49' W 092°17'2 4.0
2018-Jan-18 08:31N 29°48' W 092°14'2 3.8
2018-Jan-18 08:01N 29°47' W 092°12'1 1.8
2018-Jan-18 07:29N 29°47' W 092°11'2 3.9
2018-Jan-18 07:00N 29°47' W 092°09'2 4.1
2018-Jan-18 06:31N 29°47' W 092°07'2 4.1
2018-Jan-18 06:01N 29°48' W 092°05'2 4.1
2018-Jan-18 05:31N 29°49' W 092°03'2 4.0
2018-Jan-18 05:00N 29°50' W 092°00'  

Dump ship's entire track history